Regional Weather Roundup
Issued by NWS

Home | Current Version | Previous Version | Graphics & Text | Print | Product List | Glossary On
Versions: 1 2 3 4 5 6 7 8 9 10 11 12 13 14 15 16 17 18 19 20 21 22 23 24 25 26 27 28 29 30 31 32 33 34 35 36 37 38 39 40 41 42 43 44 45 46 47 48 49 50
000
ASUS43 KLMK 020810
RWRKY
KENTUCKY REGIONAL WEATHER ROUNDUP
NATIONAL WEATHER SERVICE LOUISVILLE KY
300 AM EST FRI DEC 02 2016

NOTE "FAIR" INDICATES FEW OR NO CLOUDS BELOW 12,000 FEET
WITH NO SIGNIFICANT WEATHER AND/OR OBSTRUCTIONS TO VISIBILITY.

KYZ001>023-026-027-061>063-070>075-020900-
WESTERN AND SOUTH CENTRAL KENTUCKY

CITY           SKY/WX    TMP DP  RH WIND       PRES   REMARKS
PADUCAH        CLEAR     28  25  88 CALM      30.16R
HENDERSON      CLEAR     27  21  80 CALM      30.16R
OWENSBORO      CLEAR     29  27  92 CALM      30.16R
HOPKINSVILLE   CLEAR     32  28  82 CALM      30.15R
BOWLING GREEN  CLEAR     31  26  82 CALM      30.17R
GLASGOW        CLEAR     29  29 100 CALM      30.16S
$$

KYZ024-025-028>034-038-045-046-053-020900-
NORTH CENTRAL KENTUCKY

CITY           SKY/WX    TMP DP  RH WIND       PRES   REMARKS
LOUISVILLE/SDF PTCLDY    35  28  75 SW6       30.14R WCI  30
LOUISVILLE/LOU CLEAR     32  27  81 CALM      30.15R
FORT KNOX      CLEAR     27  26  96 CALM      30.13R
$$

KYZ035>037-039>044-047>052-055>060-089>105-020900-
NORTHEAST KENTUCKY

CITY           SKY/WX    TMP DP  RH WIND       PRES   REMARKS
LEXINGTON      PTCLDY    29  25  85 SW3       30.12R
COVINGTON      CLOUDY    36  30  79 W5        30.09R WCI  32
FRANKFORT      CLEAR     28  23  81 CALM      30.11R
$$

KYZ054-064>069-076>088-106>120-020900-
SOUTHEAST KENTUCKY

CITY           SKY/WX    TMP DP  RH WIND       PRES   REMARKS
JACKSON        CLEAR     32  26  78 SW5       30.10R WCI  27
LONDON         CLEAR     29  25  85 CALM      30.13R
SOMERSET       PTCLDY    28  28 100 CALM      30.16R
MIDDLESBORO    CLEAR     29  29  99 CALM      30.14R
MONTICELLO     SUNNY     23  21  92 NE8       30.18R WCI  14
$$





USA.gov is the U.S. government's official web portal to all federal, state and local government web resources and services.